Location: Easthampton
(42.2676°N, 72.6690°W)
Time: 14:54:10
(UTC+00:00)

Gurwin Techsat 1B - Pass Details

Date: 06 April 2023
Orbit: 811 x 813 km, 98.9° (Epoch: 02 June)

Event Time Altitude Azimuth Distance (km) Brightness Sun altitude
Rises 08:30:35 0° 6° (N) 3,348 12.3 -20.7°
Reaches altitude 10° 08:33:02 10° 360° (N) 2,412 11.4 -20.3°
Maximum altitude 08:37:59 41° 292° (WNW) 1,170 9.1 -19.5°
Enters shadow 08:39:17 35° 258° (WSW) 1,292 9.1 -19.3°
